Temp
4 4 3 3 3 3 3 2 2 2 3 2 3 4 4 4 5 5 5 5 5 3 6 8 9 8 7 6 5 6 5 5 3 4 3 5 5 5 5 7 5 5 3 4 5 1 4 4 6 4 4 4 4 4
3 3 3 3 3 3 2 2 2 3 2 2 2 3 3 4 4 5 4 5 6 4 5 7 7 7 8 8 5 5 6 7 3 2 2 2 4 3 5 4 7 3 5 5 6 6 4 4 4 3 3 3 3 3
3 3 3 3 3 2 2 2 2 2 3 2 2 3 3 4 4 4 4 5 5 1 2 5 6 8 7 8 8 4 5 7 6 6 1 2 4 5 2 4 5 6 5 4 5 5 4 4 3 3 3 3 3 5
3 3 3 3 3 2 2 2 2 3 2 2 2 3 3 3 4 4 4 4 5 4 1 6 9 8 8 8 8 7 7 7 7 5 2 2 3 6 5 6 5 6 6 6 5 5 5 4 3 3 3 5 4 5
2 3 3 3 3 3 3 3 3 2 2 2 2 2 3 3 3 3 3 4 4 4 3 2 7 8 8 8 8 8 7 6 4 2 1 2 4 5 5 6 6 6 5 3 4 4 3 3 3 5 4 4 4 4
2 2 3 3 3 3 3 3 2 2 2 2 2 2 2 2 3 3 0 4 4 4 0 1 6 8 9 8 8 7 7 5 4 3 3 4 6 5 3 4 7 5 5 4 4 5 3 4 6 6 5 4 3 2
1 2 2 2 3 3 3 3 2 2 2 2 2 2 2 2 3 2 2 3 4 4 1 1 3 7 9 9 7 5 7 5 4 3 2 4 4 5 3 5 5 7 6 5 6 6 5 6 4 5 4 3 3 1
1 1 2 2 2 2 2 2 2 2 2 2 2 2 2 2 2 2 3 3 3 4 3 1 1 4 9 5 4 5 4 3 3 3 3 4 5 4 5 6 7 6 7 5 5 5 4 4 4 3 3 1 0 -0
1 1 1 1 1 2 2 2 2 2 2 2 2 2 2 2 3 3 3 3 3 3 1 -1 0 4 7 5 4 4 4 2 3 0 2 5 4 4 6 5 5 5 4 4 5 4 3 2 1 1 1 -1 -2 -3
1 1 1 1 1 2 3 2 2 2 2 1 2 1 -0 1 3 3 2 2 1 1 3 2 3 2 6 3 5 1 4 4 3 4 5 4 3 4 4 4 3 3 3 3 2 1 0 -0 -1 -1 -2 -3 -4 -4
1 1 1 0 1 1 2 2 2 1 1 2 -0 0 3 3 3 2 0 2 1 2 1 2 3 2 5 2 2 4 2 1 4 5 4 4 5 3 5 4 3 2 2 1 0 -1 -1 -2 -3 -3 -4 -5 -6 -6
0 1 1 0 1 1 2 2 1 1 2 2 2 2 2 2 1 2 2 1 2 4 3 2 3 3 3 5 2 2 3 3 4 4 5 5 3 4 5 3 0 -1 0 -0 -1 -2 -3 -4 -5 -5 -6 -7 -7 -7
0 0 1 1 1 1 1 1 1 2 3 3 4 1 1 1 2 0 -0 2 1 4 4 3 2 3 2 4 2 1 5 3 5 3 5 3 3 5 4 1 -1 -3 -3 -3 -3 -4 -5 -6 -6 -7 -7 -8 -8 -8
0 0 0 1 0 1 1 1 2 2 3 0 1 1 1 -0 1 3 3 3 3 2 3 3 1 2 1 1 1 4 3 3 2 3 4 2 3 2 -0 -0 -2 -3 -4 -5 -5 -5 -6 -7 -8 -8 -8 -8 -8 -9
-0 -0 0 0 0 1 1 1 2 2 1 0 1 -0 0 1 1 1 1 2 4 3 3 3 2 1 1 2 2 4 3 5 4 4 2 1 1 -1 -2 -2 -3 -4 -5 -5 -6 -6 -7 -7 -7 -7 -7 -8 -8 -8
-0 0 -0 0 0 1 0 1 1 0 1 1 1 1 1 0 2 2 3 3 2 1 2 4 2 2 1 5 4 3 3 3 3 1 0 -0 -2 -3 -3 -4 -5 -4 -4 -5 -6 -6 -6 -6 -7 -7 -7 -8 -7 -8
-0 0 0 0 -0 -0 -0 -0 -0 0 1 0 -1 -1 -1 1 2 2 2 2 2 1 3 4 4 3 2 2 3 2 1 2 0 -1 -2 -2 -3 -4 -3 -4 -4 -4 -5 -5 -5 -6 -7 -7 -6 -7 -7 -8 -7 -8
0 -0 -0 0 -0 -1 -0 -0 -0 0 1 -1 -0 1 -2 -1 0 1 0 -0 1 1 3 4 3 4 2 3 2 1 -0 -1 -2 -2 -3 -4 -4 -4 -4 -4 -4 -4 -5 -5 -5 -5 -6 -6 -7 -8 -8 -8 -8 -8
0 0 0 -0 0 0 -0 -0 1 0 -0 -1 -2 -1 -0 -2 -2 -0 -1 0 0 0 1 2 3 1 0 0 0 -1 -1 -1 -2 -4 -7 -4 -4 -4 -4 -4 -5 -5 -5 -5 -6 -6 -7 -8 -8 -8 -8 -9 -9 -9
-0 -0 -0 -0 2 1 0 1 1 1 -1 -1 -1 -0 -0 -0 -3 -3 -1 -1 -1 0 2 2 -2 -3 -2 -3 -4 -3 -4 -4 -2 -4 -5 -5 -4 -5 -5 -5 -5 -5 -6 -6 -7 -6 -7 -8 -8 -9 -9 -9 -9 -10
-0 -0 -0 1 0 2 -0 0 0 -0 -1 -0 -1 -2 -0 -3 -2 -2 -1 -3 -1 -1 -2 -4 -4 -5 -5 -5 -3 -4 -5 -4 -6 -5 -4 -7 -4 -5 -5 -5 -6 -6 -6 -7 -7 -8 -9 -9 -9 -9 -9 -9 -10 -10
-0 0 -0 0 -0 1 1 1 -1 -0 -1 -2 -2 -0 -1 -1 -1 -1 -2 -2 -3 -5 -5 -4 -5 -5 -6 -7 -6 -5 -5 -4 -4 -5 -5 -5 -7 -7 -6 -6 -6 -7 -7 -7 -8 -8 -9 -9 -9 -9 -9 -9 -10 -9
1 1 2 2 -1 -0 -0 2 -1 -0 -2 -2 -0 -0 -2 -3 -4 -3 -3 -5 -6 -6 -5 -5 -6 -6 -6 -6 -6 -6 -6 -5 -5 -5 -5 -5 -6 -6 -7 -7 -7 -8 -8 -8 -8 -8 -9 -9 -9 -9 -9 -9 -9 -9
1 -0 -1 -1 -0 -1 -1 -1 0 1 0 -1 -1 -1 -1 -3 -3 -4 -2 -4 -7 -5 -7 -6 -6 -7 -6 -6 -6 -6 -7 -5 -6 -6 -7 -6 -6 -6 -7 -7 -8 -8 -8 -8 -8 -9 -8 -9 -9 -9 -9 -9 -9 -10
-1 -2 -1 -2 -0 -2 -2 -0 -0 0 -1 -0 0 -2 -4 -3 -3 -2 -1 -5 -8 -7 -8 -5 -5 -5 -6 -7 -7 -7 -7 -6 -7 -8 -8 -7 -8 -7 -7 -8 -9 -9 -9 -9 -9 -9 -9 -9 -9 -9 -10 -10 -10 -10
-0 -3 -1 -1 -1 -0 -0 0 -0 -0 -0 -1 -1 -2 -3 -3 -2 -3 -4 -6 -7 -7 -9 -7 -7 -7 -6 -6 -8 -8 -8 -7 -7 -9 -9 -9 -9 -9 -10 -9 -10 -11 -10 -10 -10 -10 -9 -9 -9 -9 -10 -10 -10 -10
-2 -3 -2 -1 0 1 -0 -0 1 -0 -1 -1 -2 -4 -4 -3 -3 -6 -6 -5 -7 -6 -6 -6 -5 -7 -8 -9 -8 -9 -9 -8 -9 -9 -10 -10 -10 -11 -11 -11 -12 -12 -11 -11 -11 -11 -10 -10 -10 -10 -10 -10 -11 -11
-3 -2 -4 -2 -2 -1 -1 -1 -2 -2 -2 -1 -2 -3 -3 -5 -6 -7 -8 -7 -7 -8 -8 -8 -8 -8 -8 -9 -9 -9 -9 -10 -10 -10 -10 -11 -11 -11 -11 -12 -12 -12 -12 -11 -11 -11 -11 -11 -11 -11 -11 -11 -11 -11
-4 -4 -4 -5 -5 -4 -4 -4 -4 -6 -7 -6 -3 -6 -9 -9 -8 -8 -8 -8 -8 -8 -9 -10 -10 -10 -10 -10 -10 -10 -11 -10 -10 -11 -14 -11 -12 -13 -13 -12 -13 -12 -12 -12 -11 -12 -11 -11 -11 -11 -11 -12 -12 -12
-5 -4 -6 -7 -8 -7 -9 -9 -8 -9 -9 -8 -9 -9 -9 -10 -10 -8 -8 -8 -8 -9 -9 -10 -10 -10 -11 -11 -12 -12 -12 -12 -12 -12 -14 -14 -13 -13 -13 -13 -14 -13 -13 -13 -12 -12 -12 -12 -11 -12 -12 -12 -12 -13
-4 -5 -6 -7 -8 -8 -9 -9 -8 -8 -8 -7 -8 -9 -10 -11 -10 -10 -9 -9 -9 -9 -9 -10 -9 -9 -10 -11 -12 -13 -14 -14 -13 -13 -13 -14 -14 -14 -14 -14 -14 -14 -14 -13 -13 -13 -13 -13 -13 -13 -13 -14 -14 -14
-5 -5 -6 -8 -9 -9 -9 -9 -9 -9 -8 -9 -9 -10 -11 -12 -13 -11 -10 -10 -10 -10 -10 -10 -11 -13 -11 -12 -12 -12 -12 -14 -14 -14 -14 -14 -15 -15 -15 -15 -15 -14 -14 -14 -14 -14 -14 -14 -14 -14 -15 -15 -15 -16
-5 -6 -8 -9 -9 -9 -9 -7 -7 -8 -8 -8 -10 -11 -11 -10 -11 -11 -11 -10 -10 -10 -10 -11 -11 -12 -13 -13 -13 -14 -14 -14 -14 -15 -15 -15 -15 -15 -15 -15 -15 -15 -15 -14 -14 -14 -15 -15 -15 -16 -16 -16 -17 -17
Height
700 706 712 718 724 729 734 740 745 749 755 760 763 767 771 773 775 776 779 778 780 785 786 785 785 787 789 794 802 798 802 803 807 811 816 807 807 802 803 791 802 802 813 801 794 817 804 794 780 787 796 790 786 779
701 707 713 719 724 730 736 742 746 752 756 761 766 769 771 776 779 779 782 782 783 787 792 789 789 790 792 794 797 797 800 796 808 818 819 819 812 810 803 810 792 813 800 799 795 793 800 799 797 797 794 791 786 782
702 708 714 719 726 732 738 743 749 754 758 763 768 771 774 777 781 784 784 786 788 792 793 791 790 789 792 794 796 803 802 800 801 801 815 815 813 804 820 806 798 794 797 802 795 797 796 799 798 797 793 789 786 781
701 708 714 720 726 733 740 745 750 756 760 765 770 774 775 780 782 786 788 789 790 792 801 791 788 789 791 793 795 797 800 800 800 802 812 817 815 798 801 797 796 796 794 793 795 795 793 796 798 797 792 787 785 782
702 708 715 721 728 734 741 746 752 759 762 766 773 775 777 782 785 788 791 792 793 796 800 800 790 788 789 792 794 797 799 801 804 811 817 817 804 802 798 791 791 792 796 804 799 801 801 798 796 792 790 788 787 784
702 708 715 721 727 734 741 747 753 758 763 770 772 776 781 784 786 791 794 795 795 795 800 806 791 787 787 791 793 795 797 799 803 807 809 803 795 800 807 800 790 793 794 797 799 795 800 797 792 791 790 790 789 788
703 708 713 721 727 735 741 748 754 761 765 769 774 779 784 785 788 793 795 797 796 797 801 805 801 787 786 789 791 793 794 797 801 805 808 803 800 799 805 797 792 789 791 794 794 792 794 793 794 793 792 792 791 791
705 708 713 719 727 735 742 748 755 761 767 772 776 781 785 788 793 795 796 796 797 799 799 810 806 795 785 792 796 792 798 799 801 803 802 800 794 797 795 788 789 791 791 794 794 794 795 795 796 796 795 795 794 795
706 710 714 719 725 735 743 750 756 763 769 774 779 784 788 792 794 795 797 798 799 803 807 813 812 796 785 790 796 798 798 808 800 810 801 795 793 794 786 790 792 794 796 797 796 796 798 799 800 800 799 799 800 799
708 712 716 720 728 736 744 751 758 765 771 777 782 785 792 792 795 796 799 801 802 803 803 804 797 801 786 791 793 804 800 799 801 793 787 791 793 792 791 793 795 798 799 800 800 802 803 805 806 805 804 804 804 802
711 715 719 724 731 739 746 752 759 767 773 777 782 787 789 793 795 798 804 802 805 803 801 796 793 797 783 795 798 792 799 800 794 785 787 783 784 792 792 795 799 801 802 804 805 807 808 809 809 808 807 807 806 804
713 717 722 727 733 740 747 753 760 765 770 775 779 787 792 794 799 801 800 801 797 791 787 790 786 787 786 780 792 794 794 795 790 781 779 776 792 791 792 798 803 805 806 807 808 810 812 812 812 811 811 810 809 806
714 719 724 730 735 741 749 755 762 767 771 778 781 788 791 795 796 803 806 795 795 779 776 780 790 785 786 785 795 800 790 792 776 788 776 787 791 790 794 800 806 809 810 811 812 814 814 814 814 813 812 811 808 806
715 720 725 731 736 742 749 757 763 768 773 779 783 790 790 798 790 782 780 778 775 773 776 780 789 791 790 794 797 792 790 786 793 788 780 791 790 796 800 802 807 811 813 814 815 815 816 815 813 812 811 809 807 804
716 721 726 732 736 741 750 758 765 770 774 779 780 789 787 779 776 777 774 772 769 769 775 783 788 790 794 795 794 786 790 778 780 780 789 793 795 799 804 807 810 813 814 815 815 816 815 813 812 811 810 809 807 804
717 723 727 731 735 741 750 761 768 774 776 776 778 781 778 780 778 778 777 774 774 773 775 778 787 791 797 782 784 785 781 780 782 788 794 797 801 805 808 811 813 814 814 815 815 815 813 813 813 810 808 808 806 804
717 719 724 732 737 745 753 761 768 775 778 778 782 780 782 780 779 779 779 780 779 779 779 779 778 784 781 785 780 781 787 786 791 797 800 801 805 808 809 811 813 814 814 815 814 813 813 813 811 810 809 808 805 804
714 718 725 732 740 747 758 762 768 772 775 777 780 780 783 785 784 783 785 786 784 783 779 780 780 776 782 778 782 788 793 795 798 800 804 806 808 810 811 812 812 813 814 814 814 813 812 812 812 811 810 808 806 805
712 719 727 733 741 749 758 766 767 770 773 776 780 780 781 788 787 787 788 787 787 786 785 781 778 784 789 790 790 793 795 796 799 804 807 808 809 810 811 811 811 812 812 812 812 813 813 813 813 812 811 809 807 806
716 723 732 738 743 749 758 764 764 767 775 777 777 780 783 785 787 787 787 788 787 785 783 780 792 793 793 796 796 797 798 798 799 804 807 808 809 810 810 811 811 811 811 812 813 814 814 814 814 813 812 810 809 808
724 731 735 740 747 750 757 760 764 768 773 774 777 782 783 787 787 787 787 788 788 786 788 791 794 797 797 798 798 800 801 801 803 804 805 809 809 810 811 811 811 812 813 814 815 815 815 815 814 814 812 811 810 808
729 736 741 747 752 755 759 761 764 767 773 778 779 778 781 782 782 783 785 787 788 792 791 791 794 797 799 801 802 802 804 805 805 806 808 808 810 811 812 813 813 814 814 815 816 816 816 816 815 813 812 811 810 809
737 742 746 749 756 759 766 762 766 768 775 777 775 776 780 782 786 784 787 788 791 791 792 794 795 798 801 803 805 805 805 805 807 808 809 810 811 812 813 814 815 816 816 816 817 817 816 816 815 813 812 811 810 810
740 743 747 751 752 763 764 767 763 765 769 774 776 775 776 782 783 787 782 786 791 791 793 795 797 800 802 804 805 806 807 807 808 809 810 810 812 813 814 815 816 817 817 815 817 816 816 815 814 813 812 811 811 810
744 751 750 757 753 764 765 762 763 765 770 769 769 777 784 781 785 781 775 787 790 791 793 794 796 797 799 802 805 807 808 807 808 811 812 812 812 812 814 815 817 818 818 817 816 816 815 814 813 813 812 811 811 811
743 751 750 748 754 754 755 758 761 762 764 768 769 773 777 780 776 778 779 785 787 789 791 792 794 796 798 800 804 807 809 809 810 811 814 814 815 815 815 816 818 820 819 818 817 816 814 814 813 813 812 812 811 811
748 751 749 748 747 745 751 752 751 757 763 764 767 776 778 779 772 783 783 783 786 789 791 792 794 797 801 804 806 808 809 810 811 814 815 816 817 817 817 818 819 820 819 819 818 817 816 814 813 813 812 812 812 811
746 748 756 751 751 750 753 754 757 759 759 758 763 769 770 775 780 783 784 787 788 790 792 795 797 799 802 805 807 809 811 812 814 815 817 818 819 819 819 820 820 820 819 819 818 817 816 815 814 813 813 812 812 812
750 750 752 759 759 760 760 760 758 765 767 766 762 774 784 785 785 785 787 788 790 792 795 798 801 802 804 806 808 810 811 812 813 815 816 817 820 821 821 820 820 819 819 818 818 817 816 815 814 814 813 813 813 812
749 749 758 763 767 767 770 770 769 770 770 772 775 780 784 787 787 787 788 790 791 793 795 798 801 803 805 807 809 811 812 813 814 814 815 818 819 820 820 820 820 819 819 818 818 817 817 815 814 814 814 813 813 813
746 750 756 761 767 769 770 771 771 771 771 771 772 777 783 787 788 788 788 788 790 792 795 798 800 802 804 806 808 810 813 814 814 815 816 817 818 819 819 820 820 819 819 818 818 817 817 816 816 815 815 815 814 814
748 748 755 764 771 772 772 772 772 772 772 774 777 780 784 787 791 788 788 789 790 792 794 797 799 801 804 806 807 808 809 811 813 814 815 816 817 818 818 819 819 819 819 818 818 818 817 817 817 816 816 816 815 814
747 750 757 763 768 768 768 765 766 769 770 771 776 778 778 777 783 783 784 786 789 790 792 795 798 801 803 805 807 808 810 811 812 813 815 816 816 817 817 818 819 818 819 819 818 818 818 817 817 816 816 815 814 813
Wind_Speed
28 27 25 25 25 24 24 22 19 20 20 16 14 13 11 9 9 12 12 14 7 3 4 6 4 3 4 4 3 4 4 4 4 5 3 3 2 2 2 1 3 2 3 3 3 5 4 13 6 6 4 5 10 9
27 25 23 24 24 24 24 21 22 23 20 15 14 14 13 11 10 12 7 10 10 5 1 6 6 6 5 8 3 5 2 0 3 3 3 2 2 3 2 2 1 3 2 3 3 2 1 2 1 4 5 5 5 7
26 26 25 26 25 25 24 23 22 20 19 15 14 15 13 11 9 11 11 8 6 3 3 1 4 6 6 4 2 3 3 4 3 2 2 2 1 1 1 3 2 2 0 2 3 3 8 2 4 6 7 6 8 7
22 25 25 27 25 27 26 25 22 21 18 15 12 13 14 10 11 9 7 5 4 0 2 3 8 6 9 8 9 6 2 3 2 2 2 1 1 2 2 5 2 2 1 3 2 4 5 8 6 6 7 8 7 8
25 26 27 30 27 28 27 24 20 20 16 15 13 12 13 11 8 6 3 4 6 3 1 3 14 9 10 10 10 10 7 1 2 2 2 2 2 2 3 2 1 1 1 1 1 4 4 3 4 4 7 9 9 10
22 25 28 29 29 27 25 21 18 19 18 17 17 12 12 10 10 4 3 3 3 3 3 2 6 4 10 17 14 12 10 3 3 2 2 3 5 1 1 2 3 4 4 3 2 2 1 8 3 6 6 8 8 9
14 22 25 29 29 27 23 25 22 20 19 22 16 14 13 10 8 4 2 3 4 4 2 3 4 4 10 11 4 2 8 2 3 2 2 2 3 0 1 3 6 4 5 6 3 3 1 5 5 9 10 12 13 15
11 12 21 37 33 27 23 27 27 21 24 20 17 15 13 12 6 4 5 7 8 0 0 1 3 3 6 2 1 1 2 2 2 2 2 2 2 2 3 5 8 6 5 8 6 8 6 9 11 10 13 13 10 10
16 13 18 27 36 30 28 28 26 26 24 19 18 18 14 3 2 4 8 9 4 3 1 2 1 1 4 2 3 2 2 1 2 2 3 2 2 3 3 5 7 6 5 5 6 10 10 10 10 10 10 10 8 8
16 15 16 23 30 27 29 27 28 28 24 25 19 5 2 4 10 12 3 2 2 2 1 3 2 2 1 1 2 3 2 2 2 5 2 2 1 5 6 6 7 6 8 7 6 8 8 7 8 9 9 10 10 10
17 17 17 23 29 28 26 31 34 32 29 8 4 2 8 19 3 2 2 1 1 2 3 3 5 2 2 2 2 3 2 2 2 2 3 3 3 3 5 8 8 7 10 9 11 12 11 9 8 8 9 12 13 14
18 18 18 19 26 29 32 37 37 23 14 11 13 14 8 2 2 2 3 1 4 4 4 3 4 5 3 3 3 3 2 1 5 3 2 1 2 5 7 11 9 11 10 11 14 11 11 11 10 9 10 11 12 12
20 18 19 21 26 32 36 38 35 25 22 16 4 3 3 2 3 5 5 3 2 3 2 2 2 2 3 2 2 2 2 4 2 2 2 2 5 4 8 10 10 12 12 11 11 10 9 9 9 8 8 7 11 11
22 20 20 22 23 32 40 40 33 22 6 3 4 6 4 4 4 4 4 4 5 3 4 4 2 2 1 2 2 2 4 2 3 1 2 3 5 7 6 8 10 7 7 7 7 6 6 7 7 9 7 5 11 10
22 21 22 23 22 39 45 39 29 15 3 3 3 4 5 3 1 1 2 2 1 4 4 3 2 2 1 2 2 2 2 4 4 2 2 4 7 8 7 7 7 6 5 4 5 3 3 5 9 11 10 4 10 10
20 18 21 24 25 40 45 35 16 4 2 1 1 1 2 1 1 2 3 2 4 1 2 2 2 2 3 3 3 6 3 3 2 2 3 7 9 7 6 6 8 4 3 6 4 3 3 6 11 12 9 3 12 9
25 8 25 30 36 41 37 10 5 2 2 0 1 2 1 0 2 2 3 3 9 2 2 2 3 7 1 2 3 3 2 1 5 5 5 7 7 5 6 8 6 5 6 5 6 7 6 1 6 10 12 14 13 7
12 20 32 41 35 31 13 3 4 3 3 3 3 4 2 2 2 2 2 4 3 3 1 1 2 1 3 1 2 2 2 4 5 5 5 5 8 8 7 6 3 3 5 2 3 6 5 6 9 10 11 13 13 12
27 37 38 46 29 10 3 2 2 3 1 3 3 1 3 1 0 0 1 3 1 0 2 1 3 1 2 2 2 3 2 1 3 3 2 9 9 8 4 5 6 5 2 2 4 6 9 11 9 8 9 10 11 12
43 42 41 30 17 4 4 2 4 3 3 2 3 3 2 1 1 0 1 2 2 1 2 2 1 1 2 1 3 3 2 2 3 4 5 3 8 8 6 6 5 7 8 9 9 8 10 10 10 8 6 8 10 9
38 33 25 14 5 7 3 1 3 2 3 2 2 3 2 1 2 3 2 0 1 1 1 1 3 3 9 11 10 13 12 11 3 3 4 2 7 12 10 9 6 10 12 11 9 10 11 8 7 7 7 7 7 6
19 21 8 6 6 4 3 4 3 2 3 2 3 2 2 2 2 2 2 1 0 1 1 2 3 3 3 3 9 10 8 7 10 11 10 11 4 8 10 10 10 9 12 11 9 8 6 6 7 6 5 6 2 7
21 12 4 3 3 2 1 0 3 2 3 3 2 2 1 2 1 2 1 1 1 2 7 6 8 14 12 10 8 7 5 9 10 9 9 11 10 10 10 11 9 11 9 7 5 5 4 4 6 6 7 7 8 3
7 3 4 3 3 3 2 2 2 2 2 2 3 3 3 2 2 0 3 2 2 8 4 10 12 5 8 9 4 8 7 8 12 12 12 7 9 10 9 10 9 8 8 4 4 3 4 4 5 7 7 7 7 5
5 1 4 3 2 4 4 3 2 2 3 3 3 2 2 2 2 3 2 2 3 3 3 9 9 7 4 4 10 9 8 7 11 10 12 11 12 3 9 14 15 11 8 10 12 10 0 3 3 4 3 4 4 7
2 1 3 4 2 4 4 4 6 4 3 2 2 2 2 2 3 3 1 3 3 4 3 4 4 3 4 11 7 9 8 6 13 16 12 10 12 12 11 8 8 8 9 10 10 13 11 2 2 5 6 2 4 8
3 3 1 1 2 2 2 1 3 3 4 4 3 3 3 4 4 2 1 4 3 11 13 9 10 13 11 15 16 13 8 11 15 13 10 7 7 8 9 9 8 6 6 7 7 8 10 12 6 4 5 5 5 5
2 2 4 2 3 2 2 2 3 4 3 2 4 4 4 2 2 1 2 12 19 19 19 19 19 20 18 16 14 11 9 10 11 10 10 10 9 8 6 6 5 4 6 4 6 9 7 4 8 8 7 3 5 5
2 2 3 3 2 2 1 1 1 2 2 2 2 2 2 2 2 3 10 17 18 18 17 17 16 17 17 15 12 10 8 6 3 5 5 5 8 6 4 3 4 4 3 8 6 6 7 7 6 4 5 5 3 4
2 3 3 2 3 3 1 1 1 1 2 3 3 2 2 2 5 11 13 14 14 15 16 16 15 14 14 13 11 7 3 2 5 10 6 5 7 5 1 2 3 4 5 6 7 8 6 8 8 3 6 7 8 8
3 2 4 3 2 2 2 3 2 2 0 2 2 2 3 2 1 4 3 11 19 22 20 15 10 14 13 16 15 13 6 4 7 8 8 7 5 3 2 4 4 4 5 4 7 6 7 10 9 10 9 8 7 8
3 3 3 3 2 3 2 2 3 2 1 2 2 2 2 2 2 5 7 14 16 16 15 15 15 13 12 11 11 8 8 10 8 8 8 7 5 4 6 4 3 4 4 8 7 6 7 7 8 9 7 7 7 6
2 3 3 3 3 4 4 3 3 4 3 3 3 4 4 4 5 3 13 17 15 15 17 17 17 14 11 11 11 10 9 7 7 7 7 6 6 6 4 4 4 5 5 5 6 6 5 5 6 5 6 6 6 6
Wind_Direction
175 171 170 173 171 166 162 160 161 163 163 158 149 143 130 124 91 84 60 39 48 82 32 18 27 26 22 40 78 276 49 357 15 35 60 330 12 279 41 331 323 340 351 331 348 19 357 2 356 44 296 299 314 322
173 177 171 174 172 171 164 163 157 157 152 152 155 147 126 127 97 84 71 47 42 63 11 360 335 328 9 64 94 349 194 229 181 70 26 5 332 355 337 298 335 19 5 323 336 39 31 329 348 343 304 304 328 347
174 177 171 171 169 168 161 160 161 158 150 137 146 145 132 130 116 94 86 75 58 48 322 29 243 266 205 163 142 106 3 7 39 128 166 247 294 67 339 288 41 84 94 244 334 47 4 78 55 6 341 333 337 4
171 176 171 172 170 169 166 158 155 157 158 151 139 148 136 133 140 99 61 80 53 94 100 314 130 119 180 196 195 206 286 339 321 68 121 200 209 247 279 252 283 172 209 302 263 25 347 38 11 337 336 358 360 19
176 179 173 174 171 172 172 168 173 178 174 172 158 146 142 139 134 134 69 79 58 74 44 301 308 275 184 180 190 187 199 204 35 4 84 238 260 348 305 284 101 330 146 103 312 21 292 320 277 306 8 20 9 26
177 175 178 176 180 178 175 175 169 167 171 172 163 155 148 138 138 138 45 95 65 40 77 359 338 254 158 182 178 184 203 188 145 158 234 242 244 92 287 280 113 147 178 164 211 176 112 284 356 21 35 27 39 30
155 179 179 180 180 180 180 180 178 167 165 161 164 157 152 137 120 70 85 114 147 131 80 336 322 305 176 178 196 145 209 175 144 205 221 222 280 187 237 242 166 96 151 190 278 314 184 25 31 26 49 34 35 33
157 159 179 183 174 171 172 166 161 160 156 157 153 145 138 135 124 63 75 115 134 40 344 68 277 298 177 193 91 68 85 48 337 212 329 248 258 167 240 127 101 56 25 61 350 58 51 48 38 24 36 36 31 22
151 154 159 172 177 174 173 166 161 158 153 144 136 129 115 90 127 141 124 116 84 72 92 125 215 295 163 104 70 14 85 140 229 187 231 176 235 217 136 130 84 57 53 19 46 50 42 45 31 20 26 32 27 11
149 147 159 147 154 160 164 162 158 153 140 134 124 80 98 186 143 125 68 61 28 349 248 242 240 269 144 74 152 108 176 226 232 222 205 167 119 85 79 79 76 63 62 32 55 45 38 39 28 16 25 28 17 2
158 155 153 159 161 163 165 160 155 145 137 123 120 118 132 144 116 61 84 170 174 239 207 230 203 234 298 120 176 185 191 230 257 255 174 209 136 145 120 96 75 58 77 59 68 60 46 48 29 15 17 13 6 355
159 159 161 163 167 162 163 158 153 147 152 140 118 114 135 165 96 150 193 239 204 234 189 181 211 183 262 63 95 320 202 37 247 157 263 115 111 144 132 107 78 46 54 72 68 62 46 41 30 19 17 360 354 349
168 166 167 170 165 165 164 159 161 149 131 143 93 90 123 168 177 186 197 228 212 217 171 136 25 120 19 55 55 48 246 241 338 332 155 83 150 123 114 120 105 80 64 62 64 62 52 31 25 16 5 357 347 349
172 175 174 176 177 172 162 165 162 150 116 114 140 137 200 181 232 195 203 191 230 125 120 107 60 133 197 61 158 213 235 15 317 239 132 159 137 98 76 66 103 98 92 84 73 47 53 24 358 350 325 338 354 350
172 175 178 181 190 176 165 162 161 146 109 153 142 195 197 242 14 6 284 13 268 126 111 82 53 109 251 115 205 250 298 237 210 118 113 120 104 104 85 79 85 86 88 93 105 90 147 2 348 336 343 332 360 345
173 170 178 177 176 164 157 154 140 87 343 24 24 16 314 59 209 14 11 14 359 342 108 96 133 140 235 206 191 221 217 225 102 76 102 97 91 90 94 96 89 77 69 100 93 26 24 359 327 347 7 281 355 333
169 161 174 171 161 155 149 124 99 85 161 146 157 66 114 187 9 63 359 22 331 30 137 142 195 214 182 218 217 22 44 44 119 95 72 85 100 98 98 139 135 84 86 81 360 339 323 6 16 25 23 8 10 20
168 167 167 162 147 136 138 74 107 141 164 225 133 143 100 83 334 70 33 9 3 359 44 337 295 260 225 330 58 104 95 67 83 97 104 106 106 93 77 96 130 119 127 98 34 50 31 35 50 46 27 12 15 24
163 156 160 148 139 113 110 110 202 144 138 94 108 68 79 63 146 229 294 322 337 94 317 295 249 216 85 33 95 107 98 118 136 123 118 117 121 124 115 65 68 113 240 198 77 45 62 80 69 49 26 19 22 30
142 149 142 138 138 103 105 123 207 116 136 176 95 136 115 110 118 247 91 358 318 269 219 229 99 63 83 81 32 72 52 44 133 154 150 157 167 138 104 83 48 31 67 75 103 66 77 65 46 29 32 26 24 29
130 140 131 105 66 61 106 138 50 106 143 111 97 126 155 144 202 198 150 161 260 220 170 118 111 75 67 60 81 87 56 66 68 49 87 104 87 113 90 56 68 87 78 67 74 75 75 49 18 21 33 29 24 3
119 136 104 80 55 26 70 354 119 113 86 143 145 152 165 198 176 132 122 190 352 112 348 115 122 126 112 66 64 80 72 95 99 93 96 96 84 89 77 60 61 90 81 68 66 78 66 22 22 18 359 355 39 57
121 111 115 121 106 86 82 122 82 175 126 172 133 186 174 121 118 123 244 81 91 73 94 84 86 120 114 117 106 88 49 112 102 97 109 113 109 111 103 88 75 69 74 63 66 71 52 31 3 13 15 21 33 107
128 113 134 130 103 107 129 181 170 129 86 160 185 181 136 118 145 146 247 128 155 125 111 135 130 125 139 160 138 87 51 115 107 77 48 119 122 121 125 121 102 77 33 24 87 108 47 38 29 30 20 48 48 60
85 356 124 133 136 121 165 133 136 140 185 184 177 125 168 128 176 217 216 140 153 149 156 177 178 179 169 110 114 102 64 82 125 91 62 58 46 121 141 112 89 68 39 34 19 12 63 59 66 20 341 10 33 40
109 190 123 158 165 153 164 154 183 178 144 146 172 109 133 176 219 230 118 155 136 140 161 160 140 90 85 132 128 116 73 75 124 99 76 74 67 61 50 90 101 49 41 25 14 11 19 58 54 28 46 100 43 20
164 189 213 22 301 106 91 63 104 133 168 173 146 151 164 210 212 145 91 61 98 98 96 100 129 122 117 106 104 104 100 94 111 114 113 92 85 77 73 74 58 25 23 20 16 23 22 29 55 41 45 95 71 29
70 125 155 211 48 17 122 112 158 173 159 137 132 184 205 205 141 74 110 125 116 110 102 99 106 114 115 118 120 114 108 127 122 118 113 102 90 86 90 77 54 25 33 35 31 25 9 30 50 68 50 54 53 37
133 85 79 77 66 33 63 204 161 66 5 19 175 120 125 49 4 105 121 130 133 124 115 108 109 120 116 115 112 111 100 105 145 183 201 163 122 84 71 83 51 26 45 32 25 12 33 36 36 45 43 23 30 63
148 122 94 98 146 201 140 6 67 91 44 90 116 106 84 78 22 131 143 150 153 150 147 147 148 146 144 136 125 114 106 118 106 83 92 110 111 120 115 48 39 25 36 23 24 31 23 26 38 94 79 41 31 47
114 91 117 117 120 60 96 80 81 78 94 141 76 95 108 137 119 62 153 162 137 138 141 147 160 165 169 158 162 152 134 124 133 132 127 122 134 136 52 88 55 35 23 35 35 37 40 52 60 61 62 69 48 46
177 164 128 126 140 133 150 196 185 132 128 112 133 110 136 129 176 191 174 151 147 148 157 159 139 121 149 148 149 148 152 152 161 158 162 168 172 167 134 111 74 38 58 49 53 51 47 49 57 42 31 33 34 25
125 98 90 117 142 186 206 206 167 165 188 177 173 169 203 172 173 170 180 182 174 175 164 164 165 163 166 163 159 155 155 145 140 136 133 131 121 139 165 154 129 103 77 57 50 32 25 28 34 32 5 356 349 339